User: anonymous   Login
Location: Newport
(44.6370°N, 124.0520°W)
Time: 04:13:57
(UTC-08:00)
Language:

Tiangong 2 - Orbit

View from above orbital plane
View from above orbital plane
View from above satellite
View from above satellite

Ground track
Ground track

The orbit data is extracted from the following two-line orbital elements,

1 41765U 16057A   18053.91015046  .00004417  00000-0  56758-4 0  9996
2 41765  42.7854 304.0722 0003376 206.5619 333.5698 15.60442473 82127
Epoch (UTC): 22 February 2018 21:50:37
Eccentricity: 0.0003376
inclination: 42.7854°
perigee height: 384 km
apogee height: 388 km
right ascension of ascending node: 304.0722°
argument of perigee: 206.5619°
revolutions per day: 15.60442473
mean anomaly at epoch: 333.5698°
orbit number at epoch: 8212

The dashed part of the orbit path shows where the satellite is in the earth's shadow,  

DLR